Location: Observatoire Alphonse-Tardif � St-N�r�e
(46.7267°N, 70.7033°W)
Time: 06:49:28
(UTC-05:00)

Tiangong 2 - Visible Passes

Search period start: 19 December 2018 00:00
Search period end: 29 December 2018 00:00
Orbit: 383 x 391 km, 42.8° (Epoch: 19 December)

Date Brightness Start Highest point End Pass type
(mag) Time Alt. Az. Time Alt. Az. Time Alt. Az.
19 Dec 3.9 18:06:57 10° S 18:07:19 11° S 18:07:19 11° S visible
20 Dec 4.3 18:43:24 10° SW 18:43:39 11° SW 18:43:39 11° SW visible
21 Dec 3.0 17:45:07 10° SSW 17:47:29 19° SSE 17:47:39 19° SSE visible
22 Dec 3.6 16:47:12 10° S 16:48:53 14° SSE 16:50:34 10° ESE visible
22 Dec 3.2 18:22:13 10° SW 18:23:53 24° SSW 18:23:53 24° SSW visible
23 Dec 2.6 17:23:42 10° SW 17:26:26 27° SSE 17:27:50 19° ESE visible
23 Dec 4.6 18:59:53 10° WSW 19:00:06 11° WSW 19:00:06 11° WSW visible
24 Dec 2.1 18:01:10 10° WSW 18:04:02 38° S 18:04:02 38° S visible
25 Dec 2.4 17:02:30 10° WSW 17:05:25 34° S 17:07:58 12° ESE visible
25 Dec 3.7 18:38:56 10° WSW 18:40:14 20° WSW 18:40:14 20° WSW visible
26 Dec 2.1 17:40:09 10° WSW 17:43:10 40° S 17:44:11 29° SE visible
27 Dec 2.2 16:41:25 10° WSW 16:44:24 39° S 16:47:23 10° ESE visible
27 Dec 2.8 18:18:00 10° WSW 18:20:28 30° SSW 18:20:28 30° SSW visible
28 Dec 2.3 17:19:09 10° WSW 17:22:08 37° S 17:24:32 14° ESE visible
28 Dec 4.4 18:56:17 10° WSW 18:56:49 12° WSW 18:56:49 12° WSW visible
